Location: Shepherdstown, WV
(39.4326°N, 77.8042°W)
Time: 12:18:00
(UTC-04:00)

Vanguard 1 Rocket - Pass Details

Date: 07 August 2021
Orbit: 650 x 4226 km, 34.3° (Epoch: 20 September)

Event Time Altitude Azimuth Distance (km) Brightness Sun altitude
Rises 04:50:44 0° 174° (S) 7,950 11.9 -15.3°
Reaches altitude 10° 05:02:05 10° 150° (SSE) 7,358 11.9 -13.5°
Maximum altitude 05:11:08 13° 129° (SE) 7,147 12.2 -12.0°
Drops below altitude 10° 05:19:55 10° 108° (ESE) 7,221 12.5 -10.6°
Sets 05:30:16 0° 86° (E) 7,708 13.4 -8.9°
